EET,Max TemperatureF,Mean TemperatureF,Min TemperatureF,Max Dew PointF,MeanDew PointF,Min DewpointF,Max Humidity, Mean Humidity, Min Humidity, Max Sea Level PressureIn, Mean Sea Level PressureIn, Min Sea Level PressureIn, Max VisibilityMiles, Mean VisibilityMiles, Min VisibilityMiles, Max Wind SpeedMPH, Mean Wind SpeedMPH, Max Gust SpeedMPH,PrecipitationIn, CloudCover, Events, WindDirDegrees
2013-1-1,10,-1,-12,4,-6,-15,99,79,67,30.21,30.17,30.15,6,6,6,6,1,,0.00,,,258
2013-1-2,16,3,-10,5,-4,-15,98,78,57,30.33,30.26,30.21,6,6,6,5,1,,0.00,,,316
2013-1-3,21,7,-7,6,-3,-11,100,80,58,30.33,30.30,30.24,6,6,6,5,1,,0.00,,,310
2013-1-4,15,1,-13,5,-6,-17,95,81,67,30.24,30.10,29.95,6,6,6,5,1,,0.00,2,,294
2013-1-5,15,4,-6,16,4,-9,100,85,62,29.95,29.81,29.68,6,6,6,6,0,,0.00,5,Snow,85
2013-1-6,23,18,14,21,19,14,100,98,93,29.71,29.67,29.62,6,3,0,4,0,,0.31,8,Fog-Snow,323
2013-1-7,33,26,19,28,25,21,100,84,64,29.62,29.52,29.44,6,4,0,28,11,,0.01,7,Fog-Snow,157
2013-1-8,25,21,17,30,21,14,100,92,80,29.68,29.57,29.47,6,4,0,25,16,,0.02,7,Snow,199
2013-1-9,21,18,15,19,16,9,100,89,64,29.62,29.55,29.47,6,6,2,15,9,,0.08,7,Snow,52
2013-1-10,20,12,3,9,6,-4,73,67,58,29.92,29.70,29.56,6,6,6,15,9,29,0.00,4,,2
2013-1-11,18,7,-4,5,-2,-11,81,69,51,30.15,30.05,29.92,6,6,6,16,7,,0.00,3,,244
2013-1-12,9,-1,-11,4,-7,-17,95,80,71,30.27,30.23,30.18,6,6,6,6,2,,0.00,,,68
2013-1-13,10,-2,-15,8,-4,-18,98,83,77,30.24,30.14,30.06,6,6,6,7,1,,0.00,5,,283
2013-1-14,29,16,2,18,10,0,100,78,56,30.18,30.13,30.09,6,6,6,16,4,,0.00,4,,247
2013-1-15,22,8,-6,6,-3,-11,85,70,49,30.39,30.32,30.21,6,5,3,12,4,,0.00,,,120
2013-1-16,6,-8,-23,-2,-14,-27,100,81,72,30.42,30.35,30.24,6,6,6,4,0,,0.00,3,,225
2013-1-17,17,-2,-20,5,-9,-24,99,75,55,30.24,30.13,30.06,6,6,6,16,2,,0.00,4,,227
2013-1-18,28,19,8,18,10,3,85,70,49,30.15,30.10,30.06,6,6,6,17,10,,0.00,5,,244
2013-1-19,22,10,-1,13,6,-2,97,78,63,30.12,30.07,29.98,6,6,5,7,2,,0.00,5,,45
2013-1-20,32,21,10,25,18,10,86,76,60,29.98,29.95,29.92,6,6,6,20,8,,0.00,4,,229
2013-1-21,35,24,14,28,19,12,100,79,58,30.18,30.10,30.01,6,6,6,17,10,,0.00,5,,256
2013-1-22,32,14,3,27,15,3,100,94,80,30.18,30.12,30.04,6,4,0,12,3,,0.00,4,Fog,48
2013-1-23,35,26,16,32,27,19,100,81,64,30.04,30.02,29.98,6,6,5,18,8,,0.00,6,Snow,224
2013-1-24,37,29,21,27,21,16,86,76,58,30.06,30.04,29.98,6,6,6,18,9,,0.00,2,,236
2013-1-25,34,26,17,30,24,14,100,85,69,30.01,29.96,29.92,6,5,2,18,7,,0.02,6,Snow,261
2013-1-26,36,32,29,27,26,23,80,73,58,30.09,30.03,29.95,6,6,6,25,13,,0.00,6,,220
2013-1-27,34,24,15,32,25,14,100,90,57,30.06,29.95,29.86,6,3,0,25,6,36,0.28,7,Fog-Snow,33
2013-1-28,28,16,5,25,16,3,100,96,85,30.04,29.97,29.86,6,2,0,6,2,,0.28,4,Fog,73
2013-1-29,30,20,11,29,23,14,100,95,69,29.86,29.73,29.65,6,2,0,13,3,,0.12,7,Fog-Snow,9
2013-1-30,26,16,5,21,13,5,97,83,64,29.89,29.86,29.80,6,6,6,12,4,,0.00,4,,155
2013-1-31,26,19,12,23,20,14,100,94,80,29.86,29.77,29.68,6,4,2,5,1,,0.01,7,Snow,130